Marrakech, Morocco

2:28 PM WEST on October 20, 2017 (GMT +0100)
Marrakech

Weather History for GMMX - April, 2012

Change the Weather History Date:

Thursday, April 19, 2012

  Actual Average Record
Temperature  
Mean Temperature 58 °F -  
Max Temperature 60 °F 79 °F 99 °F (2013)
Min Temperature 55 °F 55 °F 33 °F (1999)
Degree Days  
Heating Degree Days 8    
Growing Degree Days 8 (Base 50)    
Moisture  
Dew Point 49 °F    
Average Humidity 74    
Maximum Humidity 82    
Minimum Humidity 67    
Precipitation  
Precipitation 0.00 in 0.04 in - ()
Sea Level Pressure  
Sea Level Pressure 30.03 in    
Wind  
Wind Speed 6 mph ()    
Max Wind Speed 10 mph    
Max Gust Speed -    
Visibility 6.2 miles    
Events      
Averages and records for this station are not official NWS values.
T = Trace of Precipitation, MM = Missing Value Source: Averaged Metar Reports

Daily Weather History Graph

Daily Weather History Graph

Search for Another Location

Airport or City:

Trip Planner

Search our weather history database for the weather conditions in past years. The results will help you decide how hot, cold, wet, or windy it might be!

Date:

Astronomy

Apr. 19, 2012 Rise Set
Actual Time 5:58 AM WET 7:03 PM WET
Civil Twilight 5:33 AM WET 7:29 PM WET
Nautical Twilight 5:03 AM WET 7:59 PM WET
Astronomical Twilight 4:33 AM WET 8:30 PM WET
Moon 4:41 AM WET (4/19) 5:41 PM WET (4/19)
Length of Visible Light 13h 55m
Length of Day
13h 05m
Waning Crescent, 3% of the Moon is Illuminated
Apr 19
Waning Crescent
Apr 21
New
Apr 29
First Quarter
May 6
Full
May 12
Last Quarter

Hourly Weather History & Observations

Time (WET) Temp. Dew Point Humidity Pressure Visibility Wind Dir Wind Speed Gust Speed Precip Events Conditions
12:00 AM 60.8 °F 50.0 °F 68% 30.06 in - NNE 6.9 mph - N/A   Clear
12:17 AM 59.0 °F 50.0 °F 72% 30.06 in 6.2 mi NNE 4.6 mph - N/A   Mostly Cloudy
12:30 AM 59.0 °F 50.0 °F 72% 30.06 in 6.2 mi NNE 4.6 mph - N/A   Mostly Cloudy
1:00 AM 59.0 °F 50.0 °F 72% 30.06 in 6.2 mi NE 4.6 mph - N/A   Mostly Cloudy
1:30 AM 59.0 °F 50.0 °F 72% 30.04 in 6.2 mi NNE 8.1 mph - N/A   Mostly Cloudy
2:00 AM 59.0 °F 50.0 °F 72% 30.04 in 6.2 mi NE 4.6 mph - N/A   Scattered Clouds
2:30 AM 59.0 °F 50.0 °F 72% 30.01 in 6.2 mi East 4.6 mph - N/A   Scattered Clouds
3:00 AM 58 °F 50 °F 67% 30.01 in 6 mi NE 5.8 mph - -   Mostly Cloudy
3:00 AM 59.0 °F 50.0 °F 72% 30.01 in 6.2 mi NE 5.8 mph - N/A   Scattered Clouds
3:30 AM 57.2 °F 50.0 °F 77% 30.01 in 6.2 mi NNE 8.1 mph - N/A   Scattered Clouds
4:00 AM 57.2 °F 50.0 °F 77% 30.01 in 6.2 mi NNE 10.4 mph - N/A   Scattered Clouds
4:30 AM 57.2 °F 50.0 °F 77% 30.01 in 6.2 mi NNE 8.1 mph - N/A   Scattered Clouds
5:00 AM 57.2 °F 50.0 °F 77% 30.01 in 6.2 mi NNE 9.2 mph - N/A   Scattered Clouds
5:30 AM 55.4 °F 50.0 °F 82% 30.01 in 6.2 mi NE 8.1 mph - N/A   Scattered Clouds
6:00 AM 55.4 °F 50.0 °F 82% 30.04 in 6.2 mi NE 9.2 mph - N/A   Scattered Clouds
6:30 AM 55.4 °F 48.2 °F 77% 30.04 in 6.2 mi ENE 8.1 mph - N/A   Mostly Cloudy
7:00 AM 55.4 °F 48.2 °F 77% 30.04 in 6.2 mi ENE 9.2 mph - N/A   Mostly Cloudy
7:30 AM 55.4 °F 48.2 °F 77% 30.04 in 6.2 mi NE 8.1 mph - N/A   Mostly Cloudy
8:00 AM 57.2 °F 48.2 °F 72% 30.04 in 6.2 mi NNE 9.2 mph - N/A   Mostly Cloudy
8:30 AM 57.2 °F 48.2 °F 72% 30.04 in 6.2 mi NE 10.4 mph - N/A   Mostly Cloudy
11:30 PM 59.0 °F 48.2 °F 67% 30.04 in - NE 9.2 mph - N/A   Clear